Location: ČR
(50.0000°N, 15.0000°E)
Time: 11:13:56
(UTC+02:00)

A-11 Canister half - Pass Details

Date: 21 March 2026
Orbit: 1514 x 1685 km, 47.2° (Epoch: 16 April)

Event Time Altitude Azimuth Distance (km) Brightness Sun altitude
Rises 19:56:19 0° 288° (WNW) 4,936 13.5 -16.8°
Reaches altitude 10° 20:00:32 10° 274° (W) 3,951 12.3 -17.4°
Maximum altitude 20:07:18 21° 231° (SW) 3,172 10.9 -18.4°
Drops below altitude 10° 20:14:04 10° 188° (S) 3,918 11.0 -19.4°
Sets 20:18:16 0° 174° (S) 4,883 11.3 -20.0°
